Location: Sternwarte_Laufen
(47.9344°N, 12.9346°E)
Time: 02:48:00
(UTC+02:00)

Tiangong 1 - Visible Passes

Search period start: 25 April 2017 00:00
Search period end: 05 May 2017 00:00
Orbit: 329 x 353 km, 42.8° (Epoch: 23 April)

Date Brightness Start Highest point End Pass type
(mag) Time Alt. Az. Time Alt. Az. Time Alt. Az.
25 Apr 2.5 04:06:31 22° SE 04:06:31 22° SE 04:08:00 10° ESE visible
26 Apr 2.2 04:27:43 23° S 04:27:43 23° S 04:29:44 10° SE visible
27 Apr 2.6 04:49:00 16° SSW 04:49:10 16° SSW 04:50:58 10° SSE visible
03 May 3.0 21:46:10 10° SSW 21:46:53 13° S 21:46:53 13° S visible
04 May 2.6 22:06:43 10° SW 22:08:01 18° SSW 22:08:01 18° SSW visible
